Location: Mount Kobau Star Party
(49.1167°N, 119.7333°W)
Time: 08:47:31
(UTC-07:00)

ACS3 Solar Sail - Pass Details

Date: 18 June 2024
Orbit: 992 x 1023 km, 97.4° (Epoch: 12 July)

Event Time Altitude Azimuth Distance (km) Brightness Sun altitude
Exits shadow 22:28:32 - 169° (SSE) 2,822 6.7 -10.0°
Reaches altitude 10° 22:28:41 10° 169° (SSE) 2,763 6.6 -10.0°
Maximum altitude 22:34:56 82° 257° (WSW) 1,010 4.9 -10.5°
Drops below altitude 10° 22:41:11 10° 346° (NNW) 2,767 8.5 -11.1°
Sets 22:43:40 0° 347° (NNW) 3,719 9.4 -11.3°
